| time (UTC) | temp C | wind direction | speed KPH | gust KPH | rain 1hr cm | rain 24hr cm | rain mn cm | humidity % | barometer mb |
| 20260508013110 | 20 | 347 | 9.7 | 17.7 | 0.00 | 0.00 | 0.00 | 30 | 1016.6 |
| 20260508011530 | 21 | 329 | 11.3 | 20.9 | 0.00 | 0.00 | 0.00 | 29 | 1016.6 |
| 20260508010107 | 21 | 348 | 11.3 | 20.9 | 0.00 | 0.00 | 0.00 | 29 | 1016.7 |
| 20260508004529 | 22 | 340 | 14.5 | 22.5 | 0.00 | 0.00 | 0.00 | 29 | 1016.6 |
| 20260508003035 | 22 | 344 | 14.5 | 25.7 | 0.00 | 0.00 | 0.00 | 28 | 1016.5 |
| 20260508000108 | 22 | 326 | 16.1 | 32.2 | 0.00 | 0.00 | 0.00 | 27 | 1016.4 |
| 20260507233111 | 23 | 349 | 14.5 | 25.7 | 0.00 | 0.00 | 0.00 | 28 | 1016.5 |
| 20260507231607 | 23 | 346 | 11.3 | 20.9 | 0.00 | 0.00 | 0.00 | 31 | 1016.6 |
| 20260507230034 | 23 | 28 | 11.3 | 25.7 | 0.00 | 0.00 | 0.00 | 32 | 1016.8 |
| 20260507221535 | 22 | 31 | 11.3 | 20.9 | 0.00 | 0.00 | 0.00 | 34 | 1017.3 |
| 20260507214535 | 22 | 48 | 14.5 | 25.7 | 0.00 | 0.00 | 0.00 | 34 | 1017.6 |
| 20260507213036 | 22 | 20 | 9.7 | 19.3 | 0.00 | 0.00 | 0.00 | 35 | 1017.9 |
| 20260507210030 | 22 | 14 | 9.7 | 22.5 | 0.00 | 0.00 | 0.00 | 35 | 1018.0 |
| 20260507204532 | 22 | 39 | 8.0 | 16.1 | 0.00 | 0.00 | 0.00 | 35 | 1018.2 |
| 20260507203031 | 22 | 52 | 8.0 | 17.7 | 0.00 | 0.00 | 0.00 | 36 | 1018.4 |
| 20260507201647 | 22 | 41 | 9.7 | 17.7 | 0.00 | 0.00 | 0.00 | 36 | 1018.6 |
| 20260507200033 | 22 | 41 | 8.0 | 22.5 | 0.00 | 0.00 | 0.00 | 37 | 1018.7 |
| 20260507194651 | 22 | 34 | 9.7 | 19.3 | 0.00 | 0.00 | 0.00 | 38 | 1018.8 |
| 20260507193036 | 22 | 47 | 8.0 | 17.7 | 0.00 | 0.00 | 0.00 | 38 | 1018.9 |
| 20260507190034 | 21 | 18 | 8.0 | 17.7 | 0.00 | 0.00 | 0.00 | 43 | 1019.2 |
| 20260507184535 | 20 | 39 | 9.7 | 20.9 | 0.00 | 0.00 | 0.00 | 48 | 1019.3 |
| 20260507181530 | 19 | 36 | 11.3 | 22.5 | 0.00 | 0.00 | 0.00 | 51 | 1019.5 |
| 20260507180033 | 18 | 46 | 11.3 | 19.3 | 0.00 | 0.00 | 0.00 | 51 | 1019.4 |
| 20260507174530 | 18 | 59 | 11.3 | 24.1 | 0.00 | 0.00 | 0.00 | 52 | 1019.6 |
| 20260507173029 | 19 | 52 | 17.7 | 30.6 | 0.00 | 0.00 | 0.00 | 46 | 1019.4 |
| 20260507171533 | 20 | 338 | 8.0 | 16.1 | 0.00 | 0.00 | 0.00 | 43 | 1019.5 |
| 20260507170032 | 21 | 329 | 1.6 | 11.3 | 0.00 | 0.00 | 0.00 | 45 | 1019.6 |
| 20260507164652 | 21 | 211 | 3.2 | 11.3 | 0.00 | 0.00 | 0.00 | 48 | 1019.7 |
| 20260507163036 | 19 | 232 | 3.2 | 8.0 | 0.00 | 0.00 | 0.00 | 55 | 1019.8 |
| 20260507161539 | 16 | 257 | 1.6 | 6.4 | 0.00 | 0.00 | 0.00 | 65 | 1020.1 |
| 20260507160035 | 15 | 304 | 3.2 | 8.0 | 0.00 | 0.00 | 0.00 | 68 | 1020.3 |
| 20260507154529 | 15 | 287 | 1.6 | 4.8 | 0.00 | 0.00 | 0.00 | 68 | 1020.5 |
| 20260507153032 | 15 | 312 | 1.6 | 6.4 | 0.00 | 0.00 | 0.00 | 69 | 1020.6 |
| 20260507151534 | 15 | 172 | 1.6 | 6.4 | 0.00 | 0.00 | 0.00 | 72 | 1020.6 |
| 20260507150041 | 14 | 55 | 0.0 | 4.8 | 0.00 | 0.00 | 0.00 | 75 | 1020.7 |
| 20260507144537 | 13 | 134 | 0.0 | 8.0 | 0.00 | 0.00 | 0.00 | 81 | 1020.7 |
| 20260507143033 | 12 | 172 | 0.0 | 4.8 | 0.00 | 0.00 | 0.00 | 86 | 1020.7 |
| 20260507141530 | 11 | 202 | 0.0 | 4.8 | 0.00 | 0.00 | 0.00 | 89 | 1020.6 |
| 20260507140033 | 9 | 153 | 1.6 | 4.8 | 0.00 | 0.00 | 0.00 | 90 | 1020.3 |
| 20260507134536 | 7 | 165 | 1.6 | 6.4 | 0.00 | 0.00 | 0.00 | 90 | 1020.3 |
| 20260507133030 | 6 | 124 | 0.0 | 9.7 | 0.00 | 0.00 | 0.00 | 90 | 1020.3 |
| 20260507130032 | 6 | 123 | 1.6 | 9.7 | 0.00 | 0.00 | 0.00 | 89 | 1020.2 |
| 20260507121535 | 7 | 52 | 0.0 | 6.4 | 0.00 | 0.00 | 0.00 | 88 | 1020.0 |
| 20260507120045 | 7 | 51 | 0.0 | 6.4 | 0.00 | 0.00 | 0.00 | 88 | 1019.8 |
| 20260507114539 | 7 | 61 | 4.8 | 12.9 | 0.00 | 0.00 | 0.00 | 87 | 1019.7 |
| 20260507111649 | 7 | 79 | 4.8 | 12.9 | 0.00 | 0.00 | 0.00 | 85 | 1019.4 |
| 20260507110035 | 7 | 100 | 3.2 | 11.3 | 0.00 | 0.00 | 0.00 | 83 | 1019.4 |
| 20260507104535 | 8 | 102 | 4.8 | 12.9 | 0.00 | 0.00 | 0.00 | 81 | 1019.4 |
| 20260507103036 | 9 | 116 | 4.8 | 9.7 | 0.00 | 0.00 | 0.00 | 78 | 1019.4 |
| 20260507100042 | 10 | 197 | 1.6 | 6.4 | 0.00 | 0.00 | 0.00 | 73 | 1019.4 |
| 20260507094638 | 11 | 215 | 0.0 | 6.4 | 0.00 | 0.00 | 0.00 | 73 | 1019.3 |
| 20260507093037 | 11 | 158 | 3.2 | 8.0 | 0.00 | 0.00 | 0.00 | 72 | 1019.3 |
| 20260507091609 | 10 | 156 | 3.2 | 8.0 | 0.00 | 0.00 | 0.00 | 71 | 1019.4 |
| 20260507090036 | 10 | 173 | 4.8 | 8.0 | 0.00 | 0.00 | 0.00 | 69 | 1019.5 |
| 20260507083035 | 11 | 173 | 1.6 | 6.4 | 0.00 | 0.00 | 0.00 | 63 | 1019.6 |
| 20260507080034 | 11 | 174 | 6.4 | 11.3 | 0.00 | 0.00 | 0.00 | 61 | 1019.6 |
| 20260507074532 | 12 | 214 | 1.6 | 8.0 | 0.00 | 0.00 | 0.00 | 59 | 1019.4 |
| 20260507073032 | 12 | 209 | 3.2 | 9.7 | 0.00 | 0.00 | 0.00 | 57 | 1019.3 |
| 20260507070030 | 15 | 266 | 3.2 | 11.3 | 0.00 | 0.00 | 0.00 | 52 | 1019.3 |
| 20260507064532 | 15 | 27 | 8.0 | 20.9 | 0.00 | 0.00 | 0.00 | 53 | 1019.3 |
| 20260507063031 | 15 | 66 | 11.3 | 22.5 | 0.00 | 0.00 | 0.00 | 54 | 1019.4 |
| 20260507061608 | 15 | 81 | 6.4 | 19.3 | 0.00 | 0.00 | 0.00 | 53 | 1019.4 |
| 20260507054610 | -17 | 0 | 0.0 | 0.0 | 0.00 | 0.00 | 0.00 | 100 | |
| 20260507051534 | 16 | 318 | 17.7 | 29.0 | 0.00 | 0.00 | 0.00 | 48 | 1019.7 |
| 20260507050031 | 16 | 322 | 16.1 | 29.0 | 0.00 | 0.00 | 0.00 | 47 | 1019.7 |
| 20260507043035 | 16 | 309 | 16.1 | 32.2 | 0.00 | 0.00 | 0.00 | 46 | 1019.7 |
| 20260507041533 | 16 | 300 | 14.5 | 25.7 | 0.00 | 0.00 | 0.00 | 47 | 1019.7 |
| 20260507040042 | 17 | 295 | 16.1 | 33.8 | 0.00 | 0.00 | 0.00 | 48 | 1019.6 |
| 20260507034537 | 17 | 294 | 19.3 | 38.6 | 0.00 | 0.00 | 0.00 | 49 | 1019.5 |
| 20260507033033 | 17 | 286 | 19.3 | 38.6 | 0.00 | 0.00 | 0.00 | 49 | 1019.4 |
| 20260507031608 | 17 | 283 | 17.7 | 35.4 | 0.00 | 0.00 | 0.00 | 48 | 1019.3 |
| 20260507030034 | 18 | 283 | 19.3 | 37.0 | 0.00 | 0.00 | 0.00 | 48 | 1019.1 |
| 20260507024535 | 18 | 308 | 8.0 | 29.0 | 0.00 | 0.00 | 0.00 | 48 | 1019.1 |
| 20260507023036 | 18 | 318 | 8.0 | 22.5 | 0.00 | 0.00 | 0.00 | 47 | 1019.0 |
| 20260507021541 | 18 | 335 | 12.9 | 32.2 | 0.00 | 0.00 | 0.00 | 46 | 1018.9 |